Overview Statistics Trail Chart Weather Telemetry Raw packets
 

This is the latest recevied weather packets stored in our database for station/object 4S6DRJ-13. If no packets are shown the sender has not sent any weather packets the latest 10 day(s).

<< 11 12 13 14 15 16 17 >>
Time Temp. Humidity Pressure Rain* Wind** Luminosity Snow
1788426870 31.11° C 70% 1007.4 hPa 0 mm 2.68 m/s, 185° 413 W/m² -
1788426809 31.11° C 71% 1007.1 hPa 0 mm 0.89 m/s, 289° 396 W/m² -
1788426748 31.11° C 70% 1007.2 hPa 0 mm 2.68 m/s, 275° 425 W/m² -
1788426687 31.11° C 70% 1007.4 hPa 0 mm 1.34 m/s, 226° 683 W/m² -
1788426626 31.11° C 70% 1007.4 hPa 0 mm 0.89 m/s, 323° 411 W/m² -
1788426565 31.11° C 69% 1007.4 hPa 0 mm 3.13 m/s, 29° 413 W/m² -
1788426504 31.11° C 68% 1007.6 hPa 0 mm 2.68 m/s, 291° 775 W/m² -
1788426443 31.11° C 68% 1007.4 hPa 0 mm 2.68 m/s, 155° 814 W/m² -
1788426382 31.11° C 69% 1007.4 hPa 0 mm 2.68 m/s, 242° 861 W/m² -
1788426321 31.67° C 68% 1007.4 hPa 0 mm 2.68 m/s, 227° 922 W/m² -
1788426260 31.67° C 68% 1007.3 hPa 0 mm 2.24 m/s, 305° 730 W/m² -
1788426199 31.11° C 69% 1007.2 hPa 0 mm 1.79 m/s, 290° 806 W/m² -
1788426138 31.11° C 69% 1007.6 hPa 0 mm 0.89 m/s, 327° 898 W/m² -
1788426077 31.11° C 70% 1007.6 hPa 0 mm 1.79 m/s, 96° 923 W/m² -
1788426016 31.11° C 69% 1007.4 hPa 0 mm 1.34 m/s, 51° 851 W/m² -
1788425955 31.11° C 69% 1007.5 hPa 0 mm 1.79 m/s, 281° 801 W/m² -
1788425894 31.11° C 69% 1007.6 hPa 0 mm 2.24 m/s, 287° 791 W/m² -
1788425833 31.11° C 70% 1007.5 hPa 0 mm 1.79 m/s, 266° 912 W/m² -
1788425772 31.11° C 69% 1007.7 hPa 0 mm 2.24 m/s, 233° 893 W/m² -
1788425711 31.11° C 68% 1007.4 hPa 0 mm 1.34 m/s, 264° 441 W/m² -
1788425650 31.11° C 68% 1007.6 hPa 0 mm 1.79 m/s, 254° 867 W/m² -
1788425590 31.67° C 69% 1007.6 hPa 0 mm 1.79 m/s, 249° 1100 W/m² -
1788425528 31.67° C 68% 1007.4 hPa 0 mm 1.79 m/s, 203° 689 W/m² -
1788425467 31.67° C 67% 1007.5 hPa 0 mm 1.79 m/s, 263° 389 W/m² -
1788425406 31.67° C 66% 1007.6 hPa 0 mm 1.79 m/s, 133° 374 W/m² -

* Rain latest hour (hover to see other rain measurements)
** Current wind speed in m/s (hover to see current wind gust speed)